Weather History for KABI - January, 2013

Change the Weather History Date:

Tuesday, January 29, 2013

  Actual Average Record
Temperature  
Mean Temperature 58 °F 46 °F  
Max Temperature 70 °F 58 °F 84 °F (1967)
Min Temperature 46 °F 34 °F 8 °F (1966)
Degree Days  
Heating Degree Days 7 19  
Month to date heating degree days 547 586  
Since 1 July heating degree days 1382 1631  
Cooling Degree Days 0 0  
Month to date cooling degree days 6 0  
Year to date cooling degree days 6 0  
Growing Degree Days 8 (Base 50)    
Moisture  
Dew Point 42 °F    
Average Humidity 56    
Maximum Humidity 93    
Minimum Humidity 19    
Precipitation  
Precipitation T in 0.04 in 1.82 in (1999)
Month to date precipitation 1.31 0.94  
Year to date precipitation 1.31 0.94  
Sea Level Pressure  
Sea Level Pressure 29.64 in    
Wind  
Wind Speed 20 mph (SW)    
Max Wind Speed 36 mph    
Max Gust Speed 45 mph    
Visibility 10 miles    
Events      
T = Trace of Precipitation, MM = Missing Value Source: NWS Daily Summary

Daily Weather History Graph

Daily Weather History Graph

Search for Another Location

Airport or City:

Trip Planner

Search our weather history database for the weather conditions in past years. The results will help you decide how hot, cold, wet, or windy it might be!

Date:

Astronomy

Jan. 29, 2013 Rise Set
Actual Time 7:34 AM CST 6:09 PM CST
Civil Twilight 7:08 AM CST 6:35 PM CST
Nautical Twilight 6:39 AM CST 7:04 PM CST
Astronomical Twilight 6:10 AM CST 7:33 PM CST
Moon 8:53 PM CST (1/29) 8:44 AM CST (1/29)
Length of Visible Light 11h 26m
Length of Day
10h 34m
Waning Gibbous, 93% of the Moon is Illuminated
Jan 29
Waning Gibbous
Feb 3
Last Quarter
Feb 10
New
Feb 17
First Quarter
Feb 25
Full

Hourly Weather History & Observations

Time (CST) Temp. Dew Point Humidity Pressure Visibility Wind Dir Wind Speed Gust Speed Precip Events Conditions
12:15 AM 66.2 °F 62.6 °F 88% 29.77 in 10.0 mi SSE 15.0 mph - N/A   Mostly Cloudy
12:52 AM 64.9 °F 62.1 °F 90% 29.69 in 10.0 mi SSE 13.8 mph - N/A   Mostly Cloudy
1:39 AM 66.2 °F 62.6 °F 88% 29.74 in 10.0 mi SSE 16.1 mph - N/A   Overcast
1:52 AM 66.0 °F 63.0 °F 90% 29.67 in 10.0 mi SSE 15.0 mph - N/A   Overcast
2:52 AM 66.9 °F 63.0 °F 87% 29.65 in 10.0 mi South 16.1 mph 25.3 mph N/A   Overcast
3:45 AM 66.2 °F 62.6 °F 88% 29.71 in 10.0 mi South 12.7 mph 21.9 mph N/A   Overcast
3:52 AM 66.9 °F 63.0 °F 87% 29.64 in 10.0 mi South 18.4 mph 23.0 mph N/A   Overcast
4:29 AM 66.2 °F 62.6 °F 88% 29.70 in 10.0 mi South 15.0 mph 23.0 mph N/A   Mostly Cloudy
4:52 AM 66.9 °F 63.0 °F 87% 29.62 in 10.0 mi South 16.1 mph - N/A   Scattered Clouds
5:52 AM 66.0 °F 63.0 °F 90% 29.61 in 10.0 mi South 13.8 mph - N/A   Clear
6:52 AM 66.0 °F 63.0 °F 90% 29.60 in 10.0 mi South 12.7 mph - N/A   Partly Cloudy
7:52 AM 66.9 °F 63.0 °F 87% 29.61 in 10.0 mi SSW 10.4 mph - N/A   Mostly Cloudy
8:52 AM 68.0 °F 63.0 °F 84% 29.60 in 9.0 mi SW 11.5 mph - N/A   Partly Cloudy
9:45 AM 66.2 °F 44.6 °F 46% 29.64 in 10.0 mi West 13.8 mph - N/A   Mostly Cloudy
9:52 AM 66.0 °F 43.0 °F 43% 29.59 in 10.0 mi West 15.0 mph - N/A   Scattered Clouds
10:52 AM 69.1 °F 37.0 °F 31% 29.57 in 10.0 mi West 16.1 mph 24.2 mph 0.00 in   Clear
11:52 AM 69.1 °F 36.0 °F 30% 29.58 in 10.0 mi West 18.4 mph 26.5 mph N/A   Partly Cloudy
12:52 PM 68.0 °F 34.0 °F 28% 29.55 in 10.0 mi WNW 24.2 mph 35.7 mph N/A   Clear
1:52 PM 64.9 °F 30.9 °F 28% 29.56 in 10.0 mi WNW 28.8 mph 40.3 mph N/A   Clear
2:52 PM 63.0 °F 26.1 °F 25% 29.57 in 10.0 mi West 28.8 mph 42.6 mph N/A   Clear
3:52 PM 62.1 °F 21.9 °F 21% 29.58 in 10.0 mi West 24.2 mph 40.3 mph N/A   Partly Cloudy
4:52 PM 59.0 °F 17.1 °F 20% 29.58 in 10.0 mi WSW 21.9 mph 32.2 mph N/A   Clear
5:52 PM 57.9 °F 19.0 °F 22% 29.59 in 10.0 mi West 24.2 mph 36.8 mph N/A   Partly Cloudy
6:52 PM 55.9 °F 19.0 °F 24% 29.62 in 10.0 mi West 33.4 mph 43.7 mph N/A   Partly Cloudy
7:52 PM 53.1 °F 18.0 °F 25% 29.65 in 10.0 mi West 32.2 mph 40.3 mph N/A   Scattered Clouds
8:52 PM 51.1 °F 19.9 °F 29% 29.68 in 10.0 mi West 26.5 mph 38.0 mph N/A   Clear
9:52 PM 48.9 °F 19.9 °F 32% 29.71 in 10.0 mi West 17.3 mph 25.3 mph N/A   Clear
10:52 PM 48.0 °F 19.0 °F 32% 29.73 in 10.0 mi West 13.8 mph - N/A   Clear
11:52 PM 46.9 °F 17.1 °F 30% 29.76 in 10.0 mi West 17.3 mph 23.0 mph N/A   Clear